TimeEST,TemperatureF,Dew PointF,Humidity,Sea Level PressureIn,VisibilityMPH,Wind Direction,Wind SpeedMPH,Gust SpeedMPH,PrecipitationIn,Events,Conditions,WindDirDegrees,DateUTC
12:54 AM,42.1,28.0,58,29.85,10.0,NW,10.4,-,N/A,,Partly Cloudy,310,2012-12-30 05:54:00
1:54 AM,42.1,26.1,53,29.88,10.0,NW,10.4,-,N/A,,Clear,310,2012-12-30 06:54:00
2:54 AM,41.0,25.0,53,29.91,10.0,NW,9.2,-,N/A,,Clear,310,2012-12-30 07:54:00
3:54 AM,41.0,25.0,53,29.94,10.0,NW,9.2,-,N/A,,Clear,310,2012-12-30 08:54:00
4:54 AM,37.9,26.1,62,29.96,10.0,West,6.9,-,N/A,,Clear,280,2012-12-30 09:54:00
5:54 AM,39.0,25.0,57,30.01,10.0,WNW,11.5,-,N/A,,Clear,300,2012-12-30 10:54:00
6:54 AM,39.0,23.0,53,30.06,10.0,NW,10.4,-,N/A,,Clear,310,2012-12-30 11:54:00
7:54 AM,39.0,21.0,49,30.11,10.0,WNW,10.4,-,N/A,,Clear,300,2012-12-30 12:54:00
8:54 AM,41.0,21.0,45,30.14,10.0,NW,16.1,23.0,N/A,,Clear,320,2012-12-30 13:54:00
9:54 AM,43.0,19.9,40,30.18,10.0,NNW,13.8,26.5,N/A,,Clear,330,2012-12-30 14:54:00
10:54 AM,44.1,19.9,38,30.19,10.0,NW,23.0,34.5,N/A,,Scattered Clouds,320,2012-12-30 15:54:00
11:54 AM,46.0,21.0,37,30.19,10.0,NW,16.1,24.2,N/A,,Scattered Clouds,320,2012-12-30 16:54:00
12:54 PM,46.0,19.9,35,30.18,10.0,NW,18.4,32.2,N/A,,Clear,320,2012-12-30 17:54:00
1:54 PM,46.0,18.0,33,30.19,10.0,NW,18.4,31.1,N/A,,Clear,320,2012-12-30 18:54:00
2:54 PM,46.9,18.0,32,30.22,10.0,NW,9.2,21.9,N/A,,Clear,320,2012-12-30 19:54:00
3:54 PM,46.0,19.0,34,30.25,10.0,West,11.5,20.7,N/A,,Clear,280,2012-12-30 20:54:00
4:54 PM,44.1,18.0,35,30.27,10.0,WNW,6.9,-,N/A,,Clear,300,2012-12-30 21:54:00
5:54 PM,42.1,19.0,40,30.29,10.0,WNW,4.6,-,N/A,,Clear,300,2012-12-30 22:54:00
6:54 PM,37.9,21.0,51,30.29,10.0,Calm,Calm,-,N/A,,Clear,0,2012-12-30 23:54:00
7:54 PM,33.1,21.9,64,30.31,10.0,Calm,Calm,-,N/A,,Clear,0,2012-12-31 00:54:00
8:54 PM,30.9,21.0,67,30.33,10.0,North,3.5,-,N/A,,Clear,350,2012-12-31 01:54:00
9:54 PM,32.0,19.0,59,30.35,10.0,NW,4.6,-,N/A,,Clear,310,2012-12-31 02:54:00
10:54 PM,28.9,21.0,72,30.37,10.0,Calm,Calm,-,N/A,,Clear,0,2012-12-31 03:54:00
11:54 PM,28.0,19.9,72,30.35,10.0,NNE,3.5,-,N/A,,Clear,20,2012-12-31 04:54:00